Location: Wavehorne
(51.0500°N, 0.8333°E)
Time: 02:40:46
(UTC+00:00)

IDEFIX/ARIANE 42P - Pass Details

Date: 20 June 2021
Orbit: 784 x 803 km, 98.4° (Epoch: 25 July)

Event Time Altitude Azimuth Distance (km) Brightness Sun altitude
Rises 01:38:50 0° 23° (NNE) 3,318 8.0 -12.3°
Reaches altitude 10° 01:41:37 10° 37° (NE) 2,380 6.4 -12.1°
Maximum altitude 01:45:52 24° 91° (E) 1,592 4.4 -11.8°
Drops below altitude 10° 01:50:03 10° 145° (SE) 2,355 4.7 -11.5°
Enters shadow 01:52:17 - 157° (SSE) 3,100 5.3 -11.4°
